TimeCDT,TemperatureF,Dew PointF,Humidity,Sea Level PressureIn,VisibilityMPH,Wind Direction,Wind SpeedMPH,Gust SpeedMPH,PrecipitationIn,Events,Conditions,WindDirDegrees,DateUTC
12:15 AM,69.8,35.6,28,29.79,10.0,South,17.3,24.2,N/A,,Clear,180,2013-04-29 05:15:00
12:35 AM,68.0,35.6,30,29.79,10.0,South,17.3,21.9,N/A,,Clear,180,2013-04-29 05:35:00
12:55 AM,69.8,33.8,27,29.79,10.0,SSW,21.9,27.6,N/A,,Clear,200,2013-04-29 05:55:00
1:15 AM,69.8,33.8,27,29.80,10.0,SSW,19.6,25.3,N/A,,Clear,200,2013-04-29 06:15:00
1:35 AM,68.0,33.8,28,29.80,10.0,SSW,17.3,-,N/A,,Clear,210,2013-04-29 06:35:00
1:55 AM,68.0,33.8,28,29.80,10.0,SSW,16.1,-,N/A,,Clear,210,2013-04-29 06:55:00
2:15 AM,68.0,33.8,28,29.80,10.0,SSW,17.3,-,N/A,,Clear,210,2013-04-29 07:15:00
2:35 AM,64.4,33.8,32,29.80,10.0,South,12.7,-,N/A,,Clear,190,2013-04-29 07:35:00
2:55 AM,62.6,33.8,34,29.80,10.0,SSW,13.8,-,N/A,,Clear,200,2013-04-29 07:55:00
3:15 AM,62.6,33.8,34,29.80,10.0,SSW,11.5,-,N/A,,Clear,210,2013-04-29 08:15:00
3:35 AM,62.6,33.8,34,29.80,10.0,SSW,10.4,-,N/A,,Clear,210,2013-04-29 08:35:00
4:15 AM,59.0,33.8,39,29.80,10.0,SW,4.6,-,N/A,,Clear,220,2013-04-29 09:15:00
4:35 AM,59.0,35.6,42,29.80,10.0,SW,10.4,-,N/A,,Clear,220,2013-04-29 09:35:00
4:55 AM,59.0,35.6,42,29.80,10.0,SW,9.2,-,N/A,,Clear,230,2013-04-29 09:55:00
5:15 AM,55.4,35.6,47,29.80,10.0,SW,11.5,-,N/A,,Clear,230,2013-04-29 10:15:00
5:35 AM,59.0,35.6,42,29.80,10.0,SW,12.7,-,N/A,,Clear,230,2013-04-29 10:35:00
5:55 AM,59.0,35.6,42,29.80,10.0,SSW,11.5,-,N/A,,Clear,210,2013-04-29 10:55:00
6:15 AM,57.2,35.6,44,29.80,10.0,SSW,11.5,-,N/A,,Clear,210,2013-04-29 11:15:00
6:35 AM,59.0,35.6,42,29.80,10.0,SSW,15.0,-,N/A,,Clear,210,2013-04-29 11:35:00
6:55 AM,59.0,37.4,45,29.80,10.0,SSW,17.3,-,N/A,,Clear,210,2013-04-29 11:55:00
7:15 AM,60.8,37.4,42,29.81,10.0,SSW,13.8,-,N/A,,Clear,210,2013-04-29 12:15:00
7:35 AM,60.8,37.4,42,29.81,10.0,SW,17.3,-,N/A,,Clear,220,2013-04-29 12:35:00
8:15 AM,64.4,37.4,37,29.81,10.0,SW,18.4,-,N/A,,Clear,220,2013-04-29 13:15:00
8:35 AM,68.0,37.4,33,29.81,10.0,SW,16.1,23.0,N/A,,Clear,230,2013-04-29 13:35:00
8:55 AM,69.8,39.2,33,29.81,10.0,SW,20.7,27.6,N/A,,Clear,220,2013-04-29 13:55:00
9:15 AM,71.6,39.2,31,29.81,10.0,WSW,18.4,26.5,N/A,,Clear,240,2013-04-29 14:15:00
9:35 AM,73.4,39.2,29,29.81,10.0,SW,19.6,25.3,N/A,,Clear,230,2013-04-29 14:35:00
9:55 AM,77.0,39.2,26,29.80,10.0,WSW,19.6,24.2,N/A,,Clear,240,2013-04-29 14:55:00
10:15 AM,77.0,37.4,24,29.81,10.0,WSW,16.1,33.4,N/A,,Clear,250,2013-04-29 15:15:00
10:35 AM,78.8,37.4,23,29.80,10.0,WSW,18.4,24.2,N/A,,Clear,250,2013-04-29 15:35:00
10:55 AM,80.6,37.4,21,29.80,10.0,WSW,21.9,28.8,N/A,,Clear,240,2013-04-29 15:55:00
11:15 AM,82.4,37.4,20,29.79,10.0,SW,20.7,31.1,N/A,,Clear,230,2013-04-29 16:15:00
11:35 AM,82.4,35.6,19,29.78,10.0,SW,24.2,34.5,N/A,,Clear,220,2013-04-29 16:35:00
11:55 AM,86.0,33.8,15,29.78,10.0,SW,26.5,33.4,N/A,,Clear,230,2013-04-29 16:55:00
12:15 PM,86.0,33.8,15,29.77,10.0,SW,20.7,31.1,N/A,,Clear,230,2013-04-29 17:15:00
12:55 PM,87.8,32.0,14,29.75,10.0,SW,23.0,29.9,N/A,,Clear,220,2013-04-29 17:55:00
1:15 PM,89.6,32.0,13,29.74,10.0,SSW,21.9,31.1,N/A,,Clear,210,2013-04-29 18:15:00
1:35 PM,89.6,32.0,13,29.73,10.0,SW,23.0,38.0,N/A,,Clear,220,2013-04-29 18:35:00
1:55 PM,89.6,32.0,13,29.72,10.0,SSW,23.0,35.7,N/A,,Clear,210,2013-04-29 18:55:00
2:15 PM,91.4,32.0,12,29.70,10.0,South,23.0,36.8,N/A,,Clear,190,2013-04-29 19:15:00
2:35 PM,91.4,30.2,11,29.69,10.0,SSW,24.2,31.1,N/A,,Clear,200,2013-04-29 19:35:00
2:55 PM,93.2,30.2,11,29.69,10.0,SW,17.3,32.2,N/A,,Clear,230,2013-04-29 19:55:00
3:15 PM,91.4,28.4,10,29.68,10.0,SSW,24.2,39.1,N/A,,Clear,200,2013-04-29 20:15:00
3:35 PM,93.2,28.4,10,29.67,10.0,SSW,21.9,36.8,N/A,,Clear,210,2013-04-29 20:35:00
3:55 PM,95.0,26.6,9,29.66,10.0,SW,20.7,31.1,N/A,,Clear,230,2013-04-29 20:55:00
4:15 PM,91.4,28.4,10,29.65,10.0,SSW,19.6,34.5,N/A,,Clear,210,2013-04-29 21:15:00
4:35 PM,95.0,28.4,9,29.64,10.0,SW,20.7,26.5,N/A,,Clear,220,2013-04-29 21:35:00
4:55 PM,93.2,28.4,10,29.63,10.0,SSW,17.3,23.0,N/A,,Clear,200,2013-04-29 21:55:00
5:15 PM,93.2,26.6,9,29.62,10.0,SSW,21.9,28.8,N/A,,Clear,210,2013-04-29 22:15:00
5:35 PM,93.2,23.0,8,29.62,10.0,West,12.7,18.4,N/A,,Clear,260,2013-04-29 22:35:00
5:55 PM,93.2,23.0,8,29.61,10.0,WSW,19.6,25.3,N/A,,Clear,250,2013-04-29 22:55:00
6:15 PM,93.2,23.0,8,29.60,10.0,SSW,17.3,28.8,N/A,,Clear,200,2013-04-29 23:15:00
6:35 PM,91.4,26.6,10,29.60,10.0,SSW,18.4,-,N/A,,Clear,210,2013-04-29 23:35:00
6:55 PM,91.4,28.4,10,29.60,10.0,South,21.9,29.9,N/A,,Clear,190,2013-04-29 23:55:00
7:15 PM,89.6,28.4,11,29.60,10.0,South,21.9,29.9,N/A,,Clear,190,2013-04-30 00:15:00
7:35 PM,89.6,28.4,11,29.59,10.0,South,19.6,27.6,N/A,,Clear,180,2013-04-30 00:35:00
7:55 PM,87.8,28.4,12,29.60,10.0,South,20.7,27.6,N/A,,Clear,180,2013-04-30 00:55:00
8:15 PM,86.0,28.4,12,29.60,10.0,South,18.4,24.2,N/A,,Clear,180,2013-04-30 01:15:00
8:35 PM,82.4,30.2,15,29.60,10.0,South,17.3,23.0,N/A,,Clear,180,2013-04-30 01:35:00
8:55 PM,80.6,32.0,17,29.61,10.0,South,21.9,26.5,N/A,,Clear,170,2013-04-30 01:55:00
9:15 PM,78.8,32.0,18,29.61,10.0,South,23.0,31.1,N/A,,Clear,170,2013-04-30 02:15:00
9:35 PM,78.8,32.0,18,29.62,10.0,South,21.9,31.1,N/A,,Clear,170,2013-04-30 02:35:00
9:55 PM,78.8,32.0,18,29.62,10.0,South,25.3,31.1,N/A,,Clear,170,2013-04-30 02:55:00
10:15 PM,77.0,32.0,19,29.63,10.0,South,23.0,32.2,N/A,,Clear,170,2013-04-30 03:15:00
10:35 PM,77.0,32.0,19,29.64,10.0,South,24.2,31.1,N/A,,Clear,170,2013-04-30 03:35:00
10:55 PM,75.2,32.0,21,29.64,10.0,South,26.5,32.2,N/A,,Clear,170,2013-04-30 03:55:00
11:15 PM,75.2,30.2,19,29.64,10.0,South,28.8,36.8,N/A,,Clear,170,2013-04-30 04:15:00
11:35 PM,73.4,30.2,20,29.64,10.0,South,31.1,38.0,N/A,,Clear,170,2013-04-30 04:35:00
11:55 PM,73.4,30.2,20,29.64,10.0,South,31.1,39.1,N/A,,Clear,170,2013-04-30 04:55:00